Total_Precipitation_Accumulation
1.21 1.52 1.96 2.28 2.75 3.25 3.46 3.57 3.61 3.86 4.21 4.17 3.93 3.71 3.44 3.17 2.94 2.86 2.80 2.60 2.44 2.32 2.24 2.12 2.12 2.01 1.86 1.78 1.75 1.69 1.62 1.50 1.45 1.50 1.40 1.20 1.09 1.01 0.87 0.80 0.73 0.67 0.66
1.16 1.45 1.78 2.14 2.40 3.01 3.38 3.45 3.66 3.91 4.16 4.09 3.95 3.83 3.77 3.58 3.31 3.16 2.92 2.75 2.60 2.42 2.32 2.21 2.08 2.05 1.96 1.83 1.79 1.77 1.81 1.83 1.78 1.77 1.76 1.62 1.43 1.15 0.95 0.89 0.84 0.77 0.78
1.12 1.36 1.61 1.93 2.11 2.49 2.97 3.20 3.35 3.72 3.96 4.15 4.47 4.46 4.26 3.93 3.46 3.18 3.03 2.87 2.83 2.69 2.47 2.40 2.26 2.08 2.01 1.90 1.77 1.67 1.64 1.72 1.83 1.86 1.95 1.82 1.54 1.29 1.11 0.97 0.90 0.85 0.81
1.10 1.32 1.51 1.65 1.87 2.13 2.56 2.97 3.24 3.50 3.71 3.86 4.09 4.22 4.06 3.66 3.28 3.05 3.05 3.09 3.02 2.98 2.83 2.65 2.49 2.31 2.14 2.01 1.93 1.87 1.75 1.71 1.72 1.75 1.73 1.66 1.49 1.45 1.36 1.15 1.04 0.96 0.90
1.25 1.36 1.42 1.45 1.63 1.88 2.32 2.72 3.03 3.32 3.48 3.62 3.71 3.88 3.94 3.80 3.61 3.36 3.25 3.24 3.16 3.05 2.91 2.81 2.66 2.47 2.32 2.21 2.12 2.03 1.98 1.93 1.83 1.74 1.67 1.65 1.48 1.34 1.36 1.26 1.11 1.10 1.03
1.44 1.43 1.43 1.41 1.51 1.72 1.99 2.39 2.75 3.13 3.37 3.48 3.68 3.75 3.66 3.68 3.65 3.36 3.31 3.29 3.34 3.24 3.00 2.81 2.70 2.58 2.46 2.35 2.30 2.24 2.15 2.06 1.96 1.89 1.81 1.77 1.71 1.51 1.44 1.35 1.17 1.17 1.11
1.36 1.38 1.41 1.41 1.48 1.64 1.81 2.06 2.28 2.66 3.09 3.28 3.44 3.56 3.59 3.48 3.52 3.42 3.28 3.26 3.18 3.14 3.09 2.91 2.79 2.71 2.51 2.39 2.36 2.31 2.20 2.15 2.07 2.02 1.94 1.85 1.72 1.64 1.66 1.68 1.50 1.37 1.20
1.31 1.35 1.40 1.50 1.58 1.60 1.69 1.87 1.99 2.20 2.64 3.00 3.10 3.19 3.36 3.36 3.21 3.21 3.13 3.08 2.99 2.91 2.97 2.98 2.83 2.75 2.64 2.44 2.33 2.27 2.15 2.09 2.07 2.00 1.95 1.90 1.78 1.73 1.76 1.84 1.90 1.80 1.51
1.25 1.33 1.39 1.52 1.62 1.60 1.60 1.73 1.84 1.90 2.16 2.61 2.86 2.97 3.05 3.02 2.82 2.73 2.72 2.72 2.78 2.76 2.79 2.84 2.75 2.66 2.57 2.43 2.30 2.22 2.10 2.01 1.94 1.87 1.84 1.81 1.73 1.70 1.69 1.75 1.92 2.14 1.98
1.25 1.37 1.42 1.43 1.51 1.55 1.60 1.68 1.69 1.73 1.84 2.07 2.39 2.70 2.85 2.79 2.74 2.63 2.45 2.36 2.34 2.38 2.47 2.58 2.57 2.52 2.46 2.38 2.22 2.07 2.00 1.98 1.86 1.78 1.74 1.68 1.60 1.63 1.68 1.72 1.76 1.93 2.07
1.31 1.45 1.49 1.50 1.48 1.49 1.58 1.66 1.61 1.58 1.63 1.77 1.92 2.15 2.50 2.59 2.59 2.57 2.35 2.20 2.10 2.05 2.09 2.11 2.17 2.20 2.24 2.25 2.15 1.97 1.87 1.86 1.81 1.76 1.75 1.67 1.58 1.58 1.58 1.61 1.63 1.68 1.81
1.18 1.32 1.40 1.43 1.48 1.51 1.58 1.69 1.67 1.61 1.55 1.59 1.65 1.77 2.05 2.30 2.41 2.52 2.40 2.21 2.09 1.97 1.93 1.90 1.90 1.90 1.89 1.95 1.95 1.83 1.72 1.70 1.66 1.63 1.65 1.64 1.60 1.60 1.54 1.52 1.50 1.45 1.44
1.01 1.08 1.17 1.29 1.41 1.50 1.55 1.66 1.68 1.61 1.52 1.47 1.47 1.58 1.75 1.94 2.06 2.15 2.25 2.18 2.14 2.01 1.90 1.83 1.79 1.76 1.75 1.75 1.75 1.75 1.65 1.60 1.55 1.52 1.52 1.52 1.56 1.54 1.45 1.39 1.35 1.32 1.33
0.90 0.93 1.02 1.12 1.22 1.35 1.46 1.52 1.57 1.55 1.50 1.42 1.34 1.40 1.49 1.67 1.79 1.80 1.94 1.98 2.01 2.03 1.89 1.74 1.67 1.63 1.65 1.69 1.69 1.72 1.69 1.59 1.53 1.51 1.49 1.43 1.41 1.38 1.33 1.33 1.31 1.36 1.48
0.83 0.89 0.94 0.97 1.04 1.12 1.21 1.31 1.38 1.37 1.37 1.35 1.30 1.30 1.30 1.38 1.49 1.51 1.61 1.70 1.76 1.89 1.89 1.77 1.69 1.63 1.61 1.66 1.68 1.69 1.70 1.65 1.58 1.50 1.43 1.38 1.39 1.36 1.33 1.36 1.37 1.43 1.61
0.82 0.83 0.84 0.85 0.86 0.91 1.01 1.09 1.20 1.26 1.27 1.25 1.25 1.23 1.21 1.23 1.32 1.34 1.37 1.44 1.54 1.66 1.76 1.78 1.73 1.67 1.64 1.85 1.83 1.72 1.68 1.67 1.63 1.55 1.43 1.36 1.39 1.33 1.34 1.39 1.46 1.61 1.80
0.72 0.73 0.75 0.78 0.80 0.81 0.85 0.94 1.03 1.09 1.15 1.17 1.17 1.20 1.24 1.24 1.28 1.29 1.28 1.34 1.44 1.55 1.65 1.71 1.74 1.74 1.77 1.84 1.69 1.72 1.62 1.58 1.55 1.49 1.43 1.35 1.28 1.31 1.17 1.25 1.38 1.46 1.60
0.68 0.71 0.71 0.72 0.73 0.73 0.72 0.76 0.83 0.92 1.00 1.05 1.11 1.12 1.18 1.20 1.19 1.22 1.23 1.29 1.36 1.45 1.54 1.62 1.60 1.59 1.65 1.71 1.56 1.55 1.49 1.50 1.48 1.41 1.35 1.35 1.33 1.32 1.37 1.40 1.43 1.27 1.18
0.68 0.70 0.70 0.70 0.67 0.64 0.64 0.67 0.74 0.79 0.86 0.97 1.09 1.14 1.19 1.20 1.20 1.25 1.25 1.27 1.34 1.39 1.38 1.43 1.46 1.44 1.49 1.54 1.45 1.43 1.35 1.40 1.35 1.28 1.24 1.25 1.22 1.42 1.62 1.65 1.63 1.38 1.13
0.57 0.62 0.62 0.61 0.62 0.65 0.66 0.69 0.75 0.78 0.86 0.97 1.08 1.13 1.18 1.27 1.28 1.26 1.26 1.23 1.27 1.35 1.30 1.26 1.24 1.24 1.26 1.35 1.31 1.29 1.23 1.27 1.23 1.20 1.18 1.28 1.27 1.45 1.59 1.54 1.61 1.54 1.26
0.57 0.56 0.56 0.59 0.68 0.73 0.74 0.77 0.80 0.88 0.95 1.01 1.05 1.09 1.09 1.16 1.21 1.19 1.18 1.20 1.19 1.18 1.14 1.09 1.07 1.03 1.08 1.15 1.14 1.17 1.16 1.21 1.20 1.16 1.10 1.08 1.31 1.44 1.52 1.44 1.32 1.42 1.48
0.55 0.52 0.53 0.57 0.59 0.66 0.74 0.79 0.84 0.87 0.87 0.91 0.99 1.08 1.07 1.08 1.13 1.15 1.15 1.18 1.16 1.10 1.04 0.98 0.96 0.91 0.93 0.99 1.03 1.10 1.16 1.27 1.21 1.09 0.99 1.04 1.27 1.29 1.32 1.29 1.33 1.51 1.51
0.55 0.52 0.52 0.51 0.49 0.52 0.61 0.75 0.83 0.84 0.85 0.86 0.93 1.02 1.04 1.06 1.12 1.12 1.13 1.13 1.10 1.05 0.98 0.92 0.88 0.85 0.84 0.91 1.03 1.07 1.16 1.23 1.15 1.07 1.12 1.16 1.20 1.17 1.17 1.29 1.43 1.41 1.28
0.51 0.52 0.49 0.47 0.48 0.50 0.52 0.61 0.69 0.74 0.81 0.85 0.88 0.92 1.00 1.03 1.04 1.04 1.07 1.12 1.14 1.10 1.00 0.94 0.90 0.84 0.81 0.82 0.88 0.97 1.03 1.08 1.10 1.13 1.16 1.13 1.12 1.13 1.19 1.29 1.29 1.25 1.31
0.52 0.54 0.52 0.48 0.49 0.47 0.48 0.50 0.54 0.61 0.70 0.77 0.82 0.84 0.89 0.95 0.98 0.98 1.04 1.12 1.15 1.21 1.23 1.14 1.05 1.01 0.95 0.90 1.04 1.10 1.07 1.08 1.12 1.17 1.13 1.09 1.10 1.13 1.12 1.16 1.19 1.26 1.40
0.51 0.50 0.48 0.45 0.47 0.47 0.49 0.50 0.51 0.56 0.62 0.67 0.73 0.78 0.82 0.86 0.89 0.90 0.94 1.04 1.08 1.14 1.16 1.19 1.19 1.11 1.09 1.09 1.09 1.09 1.14 1.20 1.25 1.26 1.21 1.15 1.12 1.14 1.14 1.17 1.21 1.25 1.40